Startseite
Über Mich
AHP4
Galerie
Sehschlangen
Tourenbuch
Bookmarks
Elektronik
Bewertung
Geschichten
[Tagesmessung] [Jahreswerte] [Information]

Messwerte vom 18.11.2021

Die letzten Messwerte von 23:58:48 Uhr:
KategorieMesswert
Temperatur [°C]9
Luftdruck [mBar]1007
Sonneneinstrahlung0
Wind [km/h]8 aus West
Niederschlag [l/m²]0
rel.Luftfeucht.96.6%
CO2 [ppm]686

Diagramme
Messwerte vom 18.11.2021
Tagesaggregation
KategorieMinimumMaximumSchnittSumme
Temperatur [°C]5128.2792
Luftdruck [mBar]100610101007.7938
Sonneneinstrahlung23465.3250
Wind [km/h]32
rF [%]7796.691.44
Niederschlag [l/m²]0.2575
CO2 [ppm]404970800.1
Einordnung alsVegetationstag

Messungen an benachbarten Tagen: Zur Jahresaggregation 2021
Tabelle aller Messwerte
UhrzeitTemperatur [°C]Luftdruck [mBar]SonneWind [km/h]RichtungRegen [l/m²]rF [%]CO2 [ppm]
00:01:46 6 1006 0 1 W 0 96.6 790
00:04:49 6 1006 0 3 SW 0 96.6 794
00:07:45 6 1006 0 1 SO 0 96.6 793
00:10:49 6 1006 0 2 N 0 96.6 789
00:13:47 6 1006 0 1 SW 0 96.6 782
00:16:43 6 1006 0 1 O 0 96.6 785
00:19:47 6 1006 0 2 SW 0 96.6 785
00:22:48 6 1006 0 2 W 0 96.6 791
00:25:48 6 1006 0 1 SW 0 96.6 789
00:28:49 6 1006 0 4 NW 0 96.6 785
00:31:48 6 1006 0 3 SO 0 96.6 788
00:34:49 6 1006 0 2 SW 0 96.6 791
00:37:45 6 1006 0 7 W 0 96.6 785
00:40:51 6 1006 0 1 NW 0 96.6 782
00:43:47 6 1006 0 1 W 0 96.6 772
00:46:47 6 1006 0 7 S 0 96.6 762
00:49:49 6 1006 0 1 S 0 96.6 759
00:52:45 6 1006 0 1 NW 0 96.6 767
00:55:47 6 1006 0 4 O 0 96.6 770
00:58:47 6 1006 0 3 S 0 96.6 773
01:01:51 6 1006 0 0 NO 0 96.6 767
01:04:47 6 1006 0 6 S 0 96.6 770
01:07:50 6 1006 0 0 SO 0 96.6 766
01:10:47 6 1006 0 1 S 0 96.6 768
01:13:47 6 1006 0 2 SO 0 96.6 776
01:16:48 5 1006 0 2 W 0 96.6 773
01:19:45 5 1006 0 4 S 0 96.6 769
01:22:45 5 1006 0 7 SW 0 96.6 761
01:25:48 5 1006 0 1 SO 0 96.6 755
01:28:49 5 1006 0 0 SO 0 96.6 757
01:31:47 5 1006 0 8 SO 0 96.6 761
01:34:48 5 1006 0 6 SW 0 96.6 758
01:37:47 6 1006 0 8 SW 0 96.6 759
01:40:48 6 1006 0 2 S 0 96.6 761
01:43:46 6 1006 0 2 S 0 96.6 762
01:46:48 5 1006 0 1 SW 0 96.6 761
01:49:46 5 1006 0 0 SO 0 96.6 750
01:52:45 5 1007 0 1 S 0 96.6 753
01:55:50 5 1006 0 2 NW 0 96.6 743
01:58:46 5 1007 0 7 W 0 96.6 743
02:01:45 5 1007 0 3 W 0 96.6 738
02:04:46 6 1006 0 4 W 0 96.6 740
02:07:47 6 1007 0 1 NW 0 96.6 736
02:10:47 6 1007 0 2 SW 0 96.6 735
02:13:46 6 1007 0 4 S 0 96.6 734
02:16:49 6 1006 0 2 SW 0 96.6 738
02:19:49 6 1007 0 0 NW 0 96.6 750
02:22:46 6 1007 0 2 W 0 96.6 755
02:25:47 6 1007 0 7 SO 0 96.6 753
02:28:46 6 1007 0 1 W 0 96.6 743
02:31:47 6 1006 0 8 SO 0 96.6 738
02:34:49 6 1007 0 0 SW 0 96.6 741
02:37:47 6 1008 0 4 S 0 96.6 739
02:40:46 6 1006 0 1 W 0 96.6 741
02:43:48 6 1006 0 0 O 0 96.6 742
02:46:46 6 1007 0 1 SO 0 96.6 750
02:49:44 6 1007 0 2 SW 0 96.6 741
02:52:49 5 1007 0 0 NO 0 96.6 728
02:55:48 5 1007 0 5 SW 0 96.6 726
02:58:45 5 1007 0 1 W 0 96.6 729
03:01:46 6 1007 0 1 W 0 96.6 730
03:04:48 6 1007 0 3 SO 0 96.6 736
03:07:45 6 1007 0 4 N 0 96.6 729
03:10:47 6 1007 0 3 S 0 96.6 730
03:13:45 6 1007 0 0 S 0 96.6 726
03:16:46 6 1007 0 4 SW 0 96.6 726
03:19:45 6 1007 0 1 W 0 96.6 726
03:22:46 6 1007 0 4 SW 0 96.6 730
03:25:47 6 1007 0 0 S 0 96.6 733
03:28:47 6 1007 0 0 SO 0 96.6 730
03:31:47 6 1007 0 2 S 0 96.6 724
03:34:45 6 1007 0 4 O 0 96.6 730
03:37:47 6 1007 0 0 NW 0 96.6 731
03:40:46 6 1008 0 0 0 96.6 730
03:43:45 6 1007 0 5 N 0 96.6 726
03:46:47 6 1008 0 4 S 0 96.6 729
03:49:45 6 1007 0 7 W 0 96.6 726
03:52:47 6 1008 0 1 S 0 96.6 727
03:55:47 6 1007 0 4 O 0 96.6 730
03:58:46 6 1007 0 2 S 0 96.6 730
04:01:48 6 1008 0 3 SW 0 96.6 733
04:04:46 6 1008 0 2 S 0 96.6 724
04:07:48 6 1007 0 1 SW 0 96.6 723
04:10:49 6 1007 0 2 SO 0 96.6 727
04:13:46 6 1007 0 0 SO 0 96.6 734
04:16:48 6 1008 0 2 S 0 96.6 736
04:19:47 6 1007 0 2 NO 0 96.6 727
04:22:46 6 1007 0 0 N 0 96.6 724
04:25:47 6 1008 0 9 SW 0 96.6 720
04:28:47 6 1007 0 3 W 0 96.6 715
04:31:47 6 1008 0 0 NW 0 96.6 718
04:34:47 6 1007 0 2 S 0 96.6 712
04:37:47 6 1007 0 1 SO 0 96.6 722
04:40:48 6 1008 0 2 W 0 96.6 729
04:43:47 6 1007 0 2 NO 0 96.6 733
04:46:47 6 1007 0 2 S 0 96.6 741
04:49:49 6 1008 0 3 SW 0 96.6 738
04:52:47 6 1007 0 4 N 0 96.6 741
04:55:48 6 1007 0 3 SW 0 96.6 739
04:58:48 6 1008 0 1 S 0 96.6 725
05:01:48 6 1008 0 4 SW 0 96.6 721
05:04:47 6 1007 0 1 SO 0 96.6 718
05:07:47 6 1007 0 2 SW 0 96.6 730
05:10:47 6 1007 0 0 SW 0 96.6 733
05:13:48 6 1007 0 2 S 0 96.6 732
05:16:45 6 1008 0 2 S 0 96.6 727
05:19:50 6 1008 0 2 SW 0 96.6 726
05:22:44 6 1007 0 4 S 0 96.6 723
05:25:48 6 1008 0 1 SO 0 96.6 729
05:28:49 6 1008 0 3 SW 0 96.6 733
05:31:48 6 1008 0 2 SO 0 96.6 733
05:34:47 6 1009 0 1 W 0 96.6 729
05:37:46 6 1008 0 0 SW 0 96.6 729
05:40:46 6 1008 0 0 W 0 96.6 726
05:43:46 6 1008 0 1 W 0 96.6 723
05:46:48 6 1008 0 3 O 0 96.6 723
05:49:47 7 1008 0 1 SW 0 96.6 729
05:52:50 7 1008 0 1 NW 0 96.6 730
05:55:47 7 1008 0 1 SO 0 96.6 730
05:58:46 7 1008 0 3 S 0 96.6 736
06:01:47 7 1008 0 1 S 0 96.6 732
06:04:47 7 1008 0 6 SO 0 96.6 733
06:07:47 7 1008 0 0 W 0 96.6 730
06:10:47 7 1007 0 1 W 0 96.6 736
06:13:49 7 1008 0 2 NW 0 96.6 727
06:16:48 7 1008 0 1 SO 0 96.6 723
06:19:48 7 1008 0 2 NW 0 96.6 727
06:22:47 7 1008 0 2 O 0 96.6 733
06:25:47 7 1008 0 5 O 0 96.6 732
06:28:46 7 1008 0 2 S 0 96.6 730
06:31:51 7 1008 0 1 SW 0 96.6 726
06:34:47 7 1008 0 4 SW 0 96.6 724
06:37:49 7 1007 0 4 NW 0 96.6 726
06:40:47 7 1007 0 1 NO 0 96.6 725
06:43:47 7 1008 0 0 NW 0 96.6 724
06:46:46 7 1008 0 6 S 0 96.6 726
06:49:45 7 1008 0 4 S 0 96.6 729
06:52:49 7 1008 0 2 W 0 96.6 735
06:55:46 7 1009 0 2 O 0 96.6 733
06:58:48 7 1008 0 0 O 0 96.6 741
07:01:46 7 1008 0 1 W 0 96.6 754
07:04:48 7 1008 0 6 SW 0 96.6 750
07:07:47 7 1009 0 2 N 0 96.6 741
07:10:46 7 1008 0 1 NW 0 96.6 741
07:13:46 7 1008 0 4 SW 0 96.6 743
07:16:45 7 1009 0 0 O 0 96.6 765
07:19:47 7 1009 3 4 NW 0 96.6 777
07:22:48 7 1009 5 5 S 0 96.6 780
07:25:47 7 1009 9 4 S 0 96.6 779
07:28:45 7 1009 12 1 S 0 96.6 791
07:31:47 7 1008 18 1 SO 0 96.6 797
07:34:48 7 1009 26 2 SW 0 96.6 796
07:37:47 7 1009 30 5 SO 0 96.6 794
07:40:48 7 1009 33 2 S 0 96.6 796
07:43:48 7 1009 48 3 SO 0 96.6 812
07:46:48 7 1009 57 4 NW 0 96.6 826
07:49:49 7 1009 68 2 SW 0 96.6 829
07:52:47 7 1009 68 9 NO 0 96.6 835
07:55:46 7 1008 91 15 S 0 96.6 830
07:58:49 7 1009 98 0 SW 0 96.6 832
08:01:48 7 1009 98 2 S 0 96.6 837
08:04:48 7 1009 106 0 S 0 96.6 829
08:07:52 7 1009 101 11 SW 0 96.6 819
08:10:49 7 1010 127 2 SW 0 96.6 820
08:13:48 8 1010 133 5 W 0 96.6 827
08:16:48 8 1009 142 3 NW 0 96.6 829
08:19:51 8 1009 140 4 SO 0 96.6 829
08:22:48 8 1009 139 4 S 0 96.6 827
08:25:49 8 1010 143 3 O 0 96.6 835
08:28:47 8 1010 146 0 NO 0 96.6 833
08:31:49 8 1009 145 1 NW 0 96.6 831
08:34:49 8 1009 143 5 SW 0 96.6 830
08:37:47 8 1009 151 5 N 0 96.6 831
08:40:48 8 1010 153 3 S 0 96.6 832
08:43:48 8 1010 160 2 S 0 96.6 830
08:46:51 8 1009 168 3 SO 0 96.6 828
08:49:45 8 1009 171 3 S 0 96.6 834
08:52:48 8 1009 175 2 SW 0 96.6 847
08:55:50 8 1009 177 3 NW 0 96.6 839
08:58:51 8 1010 179 13 SO 0 96.6 844
09:01:49 8 1009 179 0 S 0 96.6 841
09:04:48 8 1009 175 2 SO 0 96.6 845
09:07:49 8 1010 176 1 NW 0 96.6 844
09:10:48 8 1010 180 2 SW 0 96.6 847
09:13:47 8 1010 169 3 S 0 96.6 844
09:16:48 8 1009 159 1 S 0 96.6 841
09:19:47 8 1009 166 3 SW 0 96.6 847
09:22:48 8 1010 181 9 SW 0 96.5 853
09:25:49 8 1009 197 2 NW 0 96.4 856
09:28:49 8 1009 203 1 SW 0 96.5 853
09:31:50 8 1009 204 5 SW 0 96.6 857
09:34:50 8 1010 198 3 NW 0 96.3 856
09:37:47 8 1010 190 2 O 0 95.7 861
09:40:51 8 1010 193 3 S 0 95.7 868
09:43:48 9 1010 198 5 W 0 95.5 862
09:46:49 9 1009 198 5 S 0 95.2 864
09:49:48 9 1010 201 1 SW 0 94.9 865
09:52:48 9 1009 193 3 O 0 95 877
09:55:52 9 1010 200 4 SO 0 94.6 880
09:58:48 9 1010 194 1 W 0 94.4 877
10:01:51 9 1010 195 4 NO 0 94.5 874
10:04:50 9 1010 200 4 SO 0 94.5 880
10:07:48 9 1010 185 2 SW 0 94.4 883
10:10:49 9 1010 189 4 N 0 94.5 882
10:13:49 9 1010 198 5 SW 0 94.7 885
10:16:50 9 1010 196 4 S 0 94.6 890
10:19:46 9 1010 196 5 O 0 94 893
10:22:50 9 1010 188 2 SO 0 93.8 894
10:25:49 9 1009 192 3 W 0 93.7 896
10:28:48 9 1010 188 2 NO 0 93.8 893
10:31:48 9 1009 201 5 NO 0 93.9 892
10:34:52 9 1010 209 2 S 0 93.9 885
10:37:49 9 1010 211 6 NO 0 94 888
10:40:47 9 1010 207 6 W 0 93.5 884
10:43:48 9 1010 204 1 SW 0 93.7 891
10:46:48 9 1010 203 1 W 0 93.3 897
10:49:50 9 1010 205 6 W 0 92.2 894
10:52:49 9 1010 211 9 SO 0 92.1 901
10:55:48 9 1010 212 4 NW 0 92.5 896
10:58:51 9 1010 200 5 S 0 92.4 895
11:01:49 9 1009 201 3 SO 0 92 898
11:04:47 9 1010 194 3 W 0 92.3 906
11:07:50 9 1010 200 7 S 0 92.2 908
11:10:49 9 1010 204 0 SO 0 92.5 905
11:13:47 9 1010 201 11 W 0 92.5 902
11:16:49 9 1010 203 3 W 0 91.9 892
11:19:50 9 1010 212 9 SO 0 91.7 893
11:22:47 10 1010 211 5 W 0 91.8 904
11:25:51 10 1009 206 2 NW 0 91.9 907
11:28:48 10 1010 210 8 O 0 92 897
11:31:49 10 1009 210 5 SW 0 90.9 892
11:34:46 10 1009 213 5 S 0 90.8 895
11:37:49 10 1010 206 3 SW 0 90.5 894
11:40:48 10 1010 210 1 O 0 91 891
11:43:53 10 1009 213 21 W 0 90.6 896
11:46:47 10 1010 205 4 SW 0 90.2 894
11:49:48 10 1010 209 4 W 0 90.1 895
11:52:48 10 1010 203 1 W 0 90.2 890
11:55:49 10 1009 209 2 W 0 90.2 894
11:58:48 10 1010 212 8 S 0 90.4 902
12:01:48 10 1009 216 3 NW 0 89.7 901
12:04:50 10 1010 215 2 S 0 89.3 897
12:07:49 10 1009 212 5 SW 0 88.6 890
12:10:50 10 1010 210 8 SW 0 88.7 891
12:13:51 10 1010 213 2 NW 0 88.4 890
12:16:51 10 1009 217 7 S 0 88.4 889
12:19:49 10 1009 215 1 SW 0 88.1 883
12:22:48 10 1009 220 7 O 0 87.9 888
12:25:49 10 1009 224 4 W 0 87.8 881
12:28:49 10 1009 226 4 SW 0 87 883
12:31:49 10 1009 217 4 SW 0 87 881
12:34:52 11 1009 217 3 SW 0 86.9 888
12:37:50 11 1009 216 8 SW 0 86.9 888
12:40:48 10 1009 213 3 SO 0 86.4 891
12:43:55 10 1009 209 10 SW 0 86.5 890
12:46:49 10 1009 209 9 SO 0 86.5 892
12:49:51 10 1009 209 1 S 0 86.9 888
12:52:48 10 1009 214 9 W 0 87.3 895
12:55:49 10 1009 224 1 S 0 88.1 899
12:58:48 10 1009 220 1 W 0 88.5 902
13:01:50 11 1009 219 18 W 0 85 899
13:04:50 11 1009 225 8 S 0 84.8 905
13:07:48 11 1009 225 1 SW 0 85.7 904
13:10:48 11 1009 221 5 S 0 84.5 910
13:13:48 11 1009 221 2 S 0 83.1 921
13:16:48 11 1009 212 7 S 0 82.7 919
13:19:50 11 1010 216 1 O 0 82.9 917
13:22:50 11 1009 207 3 NO 0 82.9 921
13:25:50 11 1009 212 2 NW 0 83 923
13:28:49 10 1009 226 4 SW 0 83.5 900
13:31:49 11 1008 230 3 SW 0 84.4 906
13:34:51 11 1009 232 11 SW 0 84 906
13:37:47 11 1009 233 3 S 0 82.9 905
13:40:54 12 1009 234 4 W 0 81.1 906
13:43:48 12 1008 233 2 SW 0 80.2 902
13:46:48 12 1009 231 5 W 0 77.2 905
13:49:47 12 1009 224 6 S 0 77 903
13:52:50 12 1008 231 1 NW 0 77 897
13:55:49 11 1009 225 8 W 0 77.2 895
13:58:48 11 1008 231 4 W 0 78.7 890
14:01:49 11 1008 226 2 O 0 79.2 896
14:04:49 11 1008 221 2 NO 0 79.5 899
14:07:49 11 1008 217 15 SO 0 80.6 895
14:10:49 11 1008 221 8 W 0 80.9 898
14:13:51 11 1008 223 1 SO 0 81 900
14:16:48 11 1008 220 2 W 0 81.2 903
14:19:49 11 1009 217 2 S 0 80.7 904
14:22:47 11 1008 212 6 S 0 81 893
14:25:51 11 1008 214 5 N 0 81.5 896
14:28:49 11 1007 217 9 SW 0 81.2 896
14:31:48 10 1008 214 3 SW 0 81.1 916
14:34:46 10 1007 210 1 W 0 82.3 914
14:37:50 10 1008 210 12 SO 0 82.1 923
14:40:51 10 1007 210 3 SO 0 80.9 925
14:43:50 10 1008 197 2 SO 0 81.2 925
14:46:49 10 1008 186 3 S 0 81.6 925
14:49:49 10 1007 178 4 W 0 81.2 923
14:52:47 10 1007 175 3 O 0 80.8 910
14:55:49 10 1007 173 10 SW 0 80.7 908
14:58:46 10 1007 172 3 W 0 81 917
15:01:49 10 1007 175 6 S 0 80.7 926
15:04:48 10 1007 170 4 SO 0 80.6 928
15:07:51 10 1007 163 6 SO 0 80.4 928
15:10:50 10 1007 151 0 SW 0 80.3 923
15:13:47 10 1008 135 13 SW 0 81.4 916
15:16:49 10 1006 133 0 O 0 81.3 920
15:19:47 10 1007 141 4 SW 0 81.4 934
15:22:46 10 1007 149 15 SW 0 81.6 943
15:25:49 10 1006 147 4 SO 0 81.6 955
15:28:49 10 1007 125 3 SO 0 82 943
15:31:48 10 1007 115 9 SO 0 81.6 935
15:34:48 10 1007 111 9 O 0 81.5 927
15:37:50 10 1007 120 0 NW 0 81.5 931
15:40:47 10 1007 118 2 W 0 81.8 934
15:43:47 10 1007 129 7 S 0 81.7 934
15:46:48 10 1006 135 9 SW 0 81.7 942
15:49:48 10 1007 134 8 O 0 81.8 942
15:52:46 10 1006 121 1 SW 0 81.6 930
15:55:50 10 1007 109 6 SW 0 81.4 922
15:58:48 10 1007 90 4 SW 0 81.3 932
16:01:47 10 1007 85 2 S 0 81.2 923
16:04:44 10 1006 75 7 N 0 81 931
16:07:48 10 1006 64 2 W 0 81 931
16:10:47 10 1006 51 10 SW 0 81.1 928
16:13:47 10 1007 35 3 SW 0 80.8 932
16:16:48 10 1007 29 2 W 0 81 922
16:19:46 10 1007 22 5 S 0 81.2 916
16:22:48 10 1006 17 2 NW 0 81.1 921
16:25:48 10 1007 16 3 SW 0 81.6 927
16:28:45 9 1007 13 1 S 0.2575 83.1 928
16:31:47 9 1007 9 0 N 0 85.2 934
16:34:48 9 1007 6 6 SW 0 86.7 953
16:37:48 9 1007 4 11 W 0 87.8 961
16:40:47 9 1007 3 2 N 0 87.8 967
16:43:50 9 1007 0 4 SW 0 87.7 960
16:46:49 9 1007 0 1 NW 0 87.3 948
16:49:46 9 1007 0 7 W 0 87.3 942
16:52:46 9 1008 0 3 O 0 86.9 949
16:55:49 9 1007 0 3 W 0 86.6 949
16:58:48 9 1008 0 5 NW 0 86.5 960
17:01:47 9 1007 0 10 SO 0 86.3 955
17:04:50 9 1007 0 0 SO 0 85.5 968
17:07:47 9 1008 0 1 NW 0 85.5 970
17:10:47 9 1007 0 7 NW 0 85.2 951
17:13:50 9 1007 0 8 SW 0 84.6 933
17:16:48 9 1007 0 3 NW 0 84.5 938
17:19:47 9 1006 0 2 W 0 84.4 951
17:22:44 9 1007 0 4 O 0 84.7 954
17:25:46 9 1006 0 3 NO 0 83.7 961
17:28:47 9 1007 0 7 S 0 83.5 941
17:31:47 9 1007 0 10 SO 0 83.3 927
17:34:46 9 1006 0 5 S 0 83.2 928
17:37:46 9 1007 0 5 S 0 83.6 938
17:40:47 9 1007 0 3 SO 0 83.6 936
17:43:46 9 1008 0 4 W 0 83.4 934
17:46:46 9 1007 0 11 W 0 83.2 901
17:49:46 9 1007 0 7 W 0 83.2 879
17:52:46 9 1007 0 2 S 0 83.2 876
17:55:47 9 1007 0 7 W 0 83.1 900
17:58:47 9 1007 0 2 SW 0 82.7 902
18:01:48 9 1006 0 4 S 0 82.8 901
18:04:47 9 1006 0 9 SW 0 83.2 910
18:07:47 9 1007 0 12 SW 0 82.9 913
18:10:48 10 1007 0 3 NO 0 82.7 917
18:13:48 10 1007 0 3 SW 0 82.4 914
18:16:48 10 1007 0 11 SW 0 82.4 914
18:19:48 10 1007 0 2 S 0 82.2 920
18:22:47 9 1007 0 2 W 0 82.4 909
18:25:45 9 1006 0 5 W 0 82.7 904
18:28:48 9 1007 0 2 SW 0 82.8 896
18:31:48 9 1008 0 12 O 0 82.6 910
18:34:47 10 1007 0 2 NW 0 82.5 913
18:37:48 9 1006 0 7 SW 0 82.5 910
18:40:48 9 1006 0 2 SW 0 82.7 899
18:43:47 9 1006 0 9 NW 0 82.7 897
18:46:48 9 1006 0 2 S 0 82.7 905
18:49:49 10 1007 0 4 NW 0 83.2 899
18:52:46 9 1007 0 4 S 0 83.7 912
18:55:47 9 1007 0 9 NW 0 83.9 914
18:58:46 9 1007 0 18 W 0 83.9 913
19:01:47 9 1007 0 12 S 0 84.1 904
19:04:48 9 1007 0 3 NW 0 84.4 908
19:07:47 9 1008 0 2 SO 0 84.7 921
19:10:50 9 1007 0 3 SO 0 84.7 905
19:13:46 9 1007 0 2 SO 0 84.7 903
19:16:48 9 1008 0 4 SO 0 84.5 901
19:19:49 9 1007 0 4 NO 0 84.6 897
19:22:46 9 1008 0 2 W 0 85 897
19:25:48 9 1007 0 10 O 0 85.3 890
19:28:48 9 1007 0 3 SW 0 85.4 885
19:31:47 9 1007 0 8 S 0 85.6 879
19:34:47 9 1008 0 11 NW 0 85.6 879
19:37:46 9 1007 0 8 SO 0 85.8 869
19:40:47 9 1007 0 3 SO 0 85.9 864
19:43:46 9 1007 0 10 S 0 86.2 852
19:46:48 9 1007 0 11 SW 0 86.5 844
19:49:46 9 1007 0 5 NO 0 86.7 847
19:52:46 9 1007 0 10 NW 0 86.8 407
19:55:47 9 1006 0 4 S 0 86.9 404
19:58:47 9 1007 0 2 NW 0 87.2 583
20:01:48 9 1007 0 12 SW 0 87.3 622
20:04:52 9 1007 0 7 SO 0 87.5 598
20:07:48 9 1007 0 11 S 0 87.8 559
20:10:47 9 1007 0 9 S 0 88 536
20:13:49 9 1007 0 5 SW 0 88.1 529
20:16:45 9 1007 0 4 N 0 88.4 539
20:19:46 9 1007 0 3 S 0 88.7 542
20:22:48 9 1007 0 3 S 0 89.2 545
20:25:51 9 1007 0 32 SW 0 89.5 542
20:28:46 9 1006 0 2 N 0 89.6 542
20:31:45 9 1007 0 6 S 0 89.8 551
20:34:50 9 1007 0 7 NW 0 90 556
20:37:47 9 1008 0 6 W 0 90.1 562
20:40:50 9 1006 0 3 SW 0 90.4 568
20:43:46 9 1007 0 7 W 0 90.5 577
20:46:48 9 1006 0 7 S 0 90.7 583
20:49:49 9 1007 0 2 S 0 91.2 582
20:52:45 9 1006 0 9 W 0 91.4 577
20:55:46 9 1007 0 6 SW 0 91.6 585
20:58:49 9 1007 0 9 W 0 92.1 592
21:01:50 9 1008 0 10 SW 0 92.2 586
21:04:48 9 1006 0 7 W 0 92.3 589
21:07:48 9 1007 0 10 W 0 92.4 594
21:10:48 9 1006 0 16 W 0 92.5 594
21:13:47 9 1007 0 8 NO 0 92.8 599
21:16:44 9 1007 0 5 W 0 93 597
21:19:50 9 1008 0 2 W 0 93.7 601
21:22:44 9 1007 0 9 S 0 93.9 609
21:25:44 9 1007 0 7 S 0 93.9 611
21:28:48 9 1006 0 9 S 0 93.9 612
21:31:49 9 1006 0 9 W 0 93.9 614
21:34:49 9 1007 0 10 SW 0 93.9 608
21:37:48 9 1007 0 9 SO 0 93.8 606
21:40:48 9 1008 0 5 NO 0 93.7 603
21:43:47 9 1007 0 13 SW 0 93.7 612
21:46:49 9 1008 0 2 S 0 94.1 621
21:49:46 9 1008 0 8 S 0 94.1 623
21:52:47 9 1008 0 5 W 0 94.4 625
21:55:50 9 1008 0 16 SW 0 94.5 623
21:58:49 9 1008 0 7 SW 0 94.6 620
22:01:46 9 1009 0 9 W 0 94.7 626
22:04:47 9 1009 0 9 W 0 94.9 632
22:07:47 9 1008 0 9 W 0 95 632
22:10:47 9 1008 0 2 NW 0 95.2 630
22:13:49 9 1008 0 2 NW 0 95.3 630
22:16:47 9 1008 0 5 W 0 95.5 634
22:19:45 9 1008 0 8 0 95.6 632
22:22:47 9 1008 0 12 W 0 95.9 633
22:25:48 9 1008 0 7 N 0 96.3 639
22:28:49 9 1009 0 13 SW 0 96.4 640
22:31:45 9 1008 0 4 S 0 96.6 645
22:34:48 9 1009 0 15 SW 0 96.6 642
22:37:46 9 1008 0 7 SW 0 96.6 641
22:40:46 9 1009 0 6 W 0 96.6 651
22:43:49 9 1008 0 11 NW 0 96.6 653
22:46:48 9 1008 0 4 SW 0 96.6 656
22:49:50 9 1009 0 8 SW 0 96.6 657
22:52:48 9 1009 0 3 SO 0 96.6 664
22:55:47 9 1008 0 3 W 0 96.6 664
22:58:48 9 1008 0 12 W 0 96.6 671
23:01:48 9 1008 0 4 SW 0 96.6 682
23:04:47 9 1008 0 8 N 0 96.6 687
23:07:48 9 1009 0 2 N 0 96.6 694
23:10:48 9 1009 0 5 SW 0 96.6 694
23:13:47 9 1009 0 5 S 0 96.6 694
23:16:47 9 1008 0 8 W 0 96.6 685
23:19:49 9 1008 0 3 W 0 96.6 685
23:22:49 9 1008 0 7 W 0 96.6 682
23:25:49 9 1008 0 5 SW 0 96.6 685
23:28:46 9 1008 0 7 W 0 96.6 682
23:31:47 9 1007 0 5 SO 0 96.6 685
23:34:46 9 1008 0 4 W 0 96.6 688
23:37:47 9 1008 0 0 W 0 96.6 689
23:40:50 9 1009 0 14 SW 0 96.6 694
23:43:47 9 1008 0 6 S 0 96.6 692
23:46:48 9 1008 0 5 SW 0 96.6 688
23:49:47 9 1008 0 8 W 0 96.6 689
23:52:50 9 1007 0 3 SO 0 96.6 683
23:55:47 9 1008 0 9 NW 0 96.6 679
23:58:48 9 1007 0 8 W 0 96.6 686

Letzte Änderung : 04-Jan-2022
Copyright Jens Köhler, Wolfsburg, Obere Dorfstraße 10d